Über HERMES Pathfinder H1
Group: 3 satellites
Beschreibung wird geladen...
Live-Position
3D-Globus wird geladen...
Nächste Überflüge
Höhenverlauf
Altitude vs Time
uPlot chart will show altitude changes over time
Zweizeiliger Elementsatz
1 63242U 25052AJ 26061.12542243 .00006828 00000-0 31563-3 0 9994
2 63242 97.4045 314.6798 0006909 185.7923 174.3233 15.20469987 53524
Epoch: 2. März 2026 •
Age: 31 hours
Aktueller Status
Höhe 530.9 km
Geschwindigkeit 7.60 km/s
Subsatellitenpunkt -64.75°S,
63.38°E
Startdatum 15. März 2025
Alter 0.9 years
Typ other
Technische Details
Klassifizierung Payload
Masse 5.00 kg
Trockenmasse 5.00 kg
Gesamtmasse 5.00 kg
Länge 0.30 m
Durchmesser 0.10 m
Spannweite 0.30 m
Form Box
Hersteller MILANP/INAFI
Bus-Typ Cubesat 3U
Phasenstatus In Orbit
Besitzer/Staat ASI/I
Große Konstellationen
Loading constellations...